Weather History for Leadville, CO

Change the Weather History Date:

Thursday, February 27, 2014

  Actual Average Record
Temperature  
Mean Temperature 27 °F -  
Max Temperature 36 °F 34 °F 51 °F (1988)
Min Temperature 18 °F 7 °F -14 °F (1984)
Degree Days  
Heating Degree Days 38 45  
Month to date heating degree days 1229 1267  
Since 1 July heating degree days 7468 7664  
Cooling Degree Days 0 0  
Month to date cooling degree days 0 0  
Year to date cooling degree days 0 0  
Moisture  
Dew Point 20 °F    
Average Humidity 68    
Maximum Humidity 85    
Minimum Humidity 51    
Precipitation  
Precipitation 0.10 in 0.03 in 0.17 in (2003)
Month to date precipitation 1.20 0.67  
Year to date precipitation 4.16 1.29  
Sea Level Pressure  
Sea Level Pressure 29.69 in    
Wind  
Wind Speed 8 mph (North)    
Max Wind Speed 16 mph    
Max Gust Speed 20 mph    
Visibility 7 miles    
Events Fog , Snow    
T = Trace of Precipitation, MM = Missing Value Source: NWS Daily Summary

Daily Weather History Graph

Daily Weather History Graph

Search for Another Location

Airport:

Trip Planner

Search our weather history database for the weather conditions in past years. The results will help you decide how hot, cold, wet, or windy it might be!

Date:

Astronomy

Feb. 27, 2014 Rise Set
Actual Time 6:40 AM MST 5:55 PM MST
Civil Twilight 6:13 AM MST 6:22 PM MST
Nautical Twilight 5:42 AM MST 6:53 PM MST
Astronomical Twilight 5:11 AM MST 7:24 PM MST
Moon 5:14 AM MST (2/27) 4:24 PM MST (2/27)
Length of Visible Light 12h 08m
Length of Day
11h 14m
Waning Crescent, 4% of the Moon is Illuminated
Feb 27
Waning Crescent
Mar 1
New
Mar 8
First Quarter
Mar 16
Full
Mar 23
Last Quarter

Hourly Weather History & Observations

Time (MST) Temp. Windchill Dew Point Humidity Pressure Visibility Wind Dir Wind Speed Gust Speed Precip Events Conditions
12:53 AM 21.0 °F 10.6 °F 16.0 °F 81% 29.86 in 6.0 mi North 9.2 mph - 0.00 in Snow Light Snow
1:17 AM 23.0 °F 12.4 °F 16.0 °F 74% 29.99 in 2.0 mi North 10.4 mph - 0.00 in Snow Light Snow
1:25 AM 23.0 °F 12.4 °F 18.0 °F 81% 29.99 in 1.2 mi North 10.4 mph - 0.00 in Snow Light Snow
1:31 AM 23.0 °F 12.4 °F 19.0 °F 85% 29.98 in 2.0 mi North 10.4 mph - 0.00 in Snow Light Snow
1:41 AM 21.9 °F 10.4 °F 19.0 °F 89% 29.98 in 5.0 mi North 11.5 mph - 0.00 in Snow Light Snow
1:53 AM 21.0 °F 9.3 °F 18.0 °F 88% 29.82 in 10.0 mi NE 11.5 mph - 0.00 in   Scattered Clouds
2:53 AM 21.0 °F 10.6 °F 15.1 °F 78% 29.77 in 10.0 mi NE 9.2 mph - N/A   Clear
3:53 AM 26.1 °F 16.2 °F 14.0 °F 60% 29.75 in 10.0 mi North 10.4 mph - N/A   Overcast
4:53 AM 26.1 °F 18.4 °F 15.1 °F 63% 29.74 in 10.0 mi NNE 6.9 mph - N/A   Mostly Cloudy
5:53 AM 25.0 °F 18.1 °F 14.0 °F 63% 29.75 in 10.0 mi NE 5.8 mph - N/A   Mostly Cloudy
6:53 AM 25.0 °F 16.3 °F 14.0 °F 63% 29.77 in 10.0 mi NNW 8.1 mph - N/A   Scattered Clouds
7:53 AM 28.9 °F 25.2 °F 15.1 °F 56% 29.74 in 10.0 mi Variable 3.5 mph - N/A   Overcast
8:53 AM 32.0 °F 28.7 °F 17.1 °F 54% 29.72 in 10.0 mi NNW 3.5 mph - 0.00 in   Overcast
9:53 AM 34.0 °F 28.0 °F 17.1 °F 50% 29.68 in 10.0 mi North 6.9 mph - N/A   Overcast
10:53 AM 34.0 °F 27.2 °F 19.0 °F 54% 29.69 in 10.0 mi North 8.1 mph - N/A   Overcast
11:53 AM 34.0 °F 24.6 °F 19.9 °F 56% 29.66 in 10.0 mi NNW 13.8 mph - N/A   Overcast
12:53 PM 34.0 °F 26.0 °F 21.0 °F 59% 29.58 in 10.0 mi NNW 10.4 mph - N/A   Overcast
1:53 PM 33.1 °F 26.9 °F 23.0 °F 66% 29.57 in 10.0 mi North 6.9 mph - 0.00 in   Overcast
2:53 PM 32.0 °F 24.2 °F 23.0 °F 69% 29.56 in 10.0 mi NNW 9.2 mph - N/A   Overcast
3:53 PM 30.9 °F 21.7 °F 23.0 °F 72% 29.51 in 10.0 mi NNW 11.5 mph - 0.00 in   Overcast
4:53 PM 28.9 °F 22.8 °F 24.1 °F 82% 29.52 in 10.0 mi NNW 5.8 mph - 0.00 in   Overcast
5:05 PM 28.9 °F 21.1 °F 24.1 °F 82% 29.69 in 2.0 mi NNW 8.1 mph - 0.00 in Snow Light Snow
5:12 PM 28.0 °F 21.7 °F 24.1 °F 85% 29.68 in 1.0 mi NNW 5.8 mph - 0.00 in Snow Light Snow
5:29 PM 28.0 °F - 25.0 °F 88% 29.69 in 2.5 mi Calm Calm - 0.00 in Snow Light Snow
5:36 PM 28.0 °F - 25.0 °F 88% 29.69 in 4.0 mi Calm Calm - 0.00 in Snow Light Snow
5:41 PM 28.0 °F - 25.0 °F 88% 29.69 in 1.8 mi Calm Calm - 0.00 in Snow Light Snow
5:53 PM 28.0 °F 24.2 °F 26.1 °F 92% 29.53 in 0.8 mi NW 3.5 mph - 0.01 in Snow Light Snow
6:05 PM 27.0 °F 17.3 °F 25.0 °F 92% 29.70 in 0.5 mi WNW 10.4 mph - 0.01 in Fog , Snow Snow
6:07 PM 27.0 °F 16.7 °F 25.0 °F 92% 29.71 in 0.2 mi NW 11.5 mph 17.3 mph 0.02 in Fog , Snow Heavy Snow
6:21 PM 26.1 °F 19.4 °F 23.0 °F 88% 29.70 in 0.5 mi WNW 5.8 mph - 0.08 in Fog , Snow Light Snow
6:26 PM 26.1 °F 21.9 °F 24.1 °F 92% 29.70 in 3.0 mi NNW 3.5 mph - 0.09 in Snow Light Snow
6:31 PM 26.1 °F 20.5 °F 23.0 °F 88% 29.70 in 2.5 mi NNW 4.6 mph - 0.09 in Snow Light Snow
6:37 PM 27.0 °F 19.5 °F 23.0 °F 85% 29.70 in 3.0 mi North 6.9 mph - 0.09 in Snow Light Snow
6:53 PM 26.1 °F 20.5 °F 21.9 °F 84% 29.55 in 9.0 mi ENE 4.6 mph - 0.09 in   Overcast
7:01 PM 26.1 °F 18.4 °F 21.9 °F 84% 29.69 in 10.0 mi NE 6.9 mph - N/A   Overcast
7:53 PM 27.0 °F 20.5 °F 17.1 °F 66% 29.51 in 10.0 mi North 5.8 mph - N/A   Mostly Cloudy
8:53 PM 27.0 °F 18.0 °F 16.0 °F 63% 29.48 in 10.0 mi North 9.2 mph - N/A   Mostly Cloudy
9:53 PM 26.1 °F 16.8 °F 18.0 °F 71% 29.49 in 10.0 mi North 9.2 mph - N/A   Overcast
10:53 PM 25.0 °F 16.3 °F 19.0 °F 78% 29.50 in 10.0 mi North 8.1 mph - N/A   Mostly Cloudy
11:41 PM 24.1 °F 16.0 °F 21.0 °F 88% 29.71 in 2.5 mi North 6.9 mph - 0.00 in Snow Light Snow
11:48 PM 24.8 °F 14.0 °F 19.4 °F 80% 29.71 in 7.0 mi North 11.5 mph - 0.00 in Snow Light Snow
11:53 PM 24.1 °F 15.2 °F 19.9 °F 84% 29.53 in 9.0 mi NNW 8.1 mph - 0.00 in   Overcast